Notices

What's New in latest Release from April 7th, 2021:

- Updated Glossary, including Speed of Maximum Gust, and Total Hourly Precipitation

- Updated national and regional climate services offices contacts and prices information

- Addition of station inventory lists for 1981-2010, 1971-2000, and 1961-1990 Normals.

If you haven't already, please take our survey and provide feedback about our website: https://eccc.sondage-survey.ca/f/LanguageSelection.aspx?s=442ca660-fcf1-47c0-95a9-59707d6fd709

Hourly Data Report for March 29, 2004

SHERBROOKE A
QUEBEC

45°26'00.000" N
71°41'00.000" W
241.40 m
7028124
71610
YSC

Download Data

Hourly Data (March 2004)
Hourly Data Report for March 29, 2004
TIME
LST
Temp Definition
°C
Dew Point Definition
°C
Rel Hum Definition
%
Precip. Amount Definition
mm

Wind Dir Definition
10's deg

Wind Spd Definition
km/h
Visibility Definition
km
Stn Press Definition
kPa
Hmdx Definition


Wind Chill Definition


Weather Definition


00:00 -0.4 -6.9 61   7 4 15.0 100.28   -2  
01:00 -0.6 -7.7 59   8 4 15.0 100.26   -2  
02:00 -2.2 -7.7 66   5 7 15.0 100.26   -5  
03:00 -3.3 -7.3 74   6 6 15.0 100.25   -6  
04:00 -4.2 -8.0 75   11 4 15.0 100.24   -6  
05:00 -3.6 -7.6 74   12 6 15.0 100.24   -6  
06:00 -4.9 -7.2 84     0 15.0 100.31      
07:00 -0.2 -6.3 63   9 7 15.0 100.31   -3  
08:00 4.0 -6.7 46     0 24.1 100.28     Clear
09:00 5.9 -6.4 41   12 7 24.1 100.24     Clear
10:00 7.6 -7.3 34   16 7 24.1 100.17     Clear
11:00 9.6 -6.9 31   15 6 24.1 100.08     Clear
12:00 11.1 -6.7 28   16 4 24.1 99.99     Clear
13:00 12.5 -7.5 24   15 13 24.1 99.91     Clear
14:00 13.3 -6.7 24   16 11 24.1 99.82     Clear
15:00 13.9 -7.1 23   16 6 24.1 99.75     Clear
16:00 12.8 -6.5 25   10 19 24.1 99.70     Clear
17:00 11.8 -4.8 31   13 15 24.1 99.69     Clear
18:00 8.7 -5.3 37   13 15 15.0 99.67      
19:00 7.0 -6.0 39   13 19 15.0 99.66      
20:00 5.2 -6.4 43   13 15 15.0 99.67      
21:00 4.9 -7.0 42   13 17 15.0 99.65      
22:00 3.7 -7.5 44   13 9 15.0 99.65      
23:00 1.8 -7.6 50   13 9 15.0 99.65      

Notes on Data Quality.

Legend

  • E = Estimated
  • M = Missing
  • NA = Not Available*
  • [empty] = Indicates an unobserved value
Date modified: